| time (UTC) | temp C | wind direction | speed KPH | gust KPH | rain 1hr cm | rain 24hr cm | rain mn cm | humidity % | barometer mb |
| 20260506224709 | 19 | 3 | 8.0 | 11.3 | 0.00 | 0.00 | 0.00 | 72 | 1013.8 |
| 20260506224206 | 20 | 0 | 9.7 | 14.5 | 0.00 | 0.00 | 0.00 | 71 | 1013.8 |
| 20260506223702 | 20 | 342 | 8.0 | 12.9 | 0.00 | 0.00 | 0.00 | 71 | 1013.8 |
| 20260506223158 | 20 | 342 | 11.3 | 17.7 | 0.00 | 0.00 | 0.00 | 71 | 1013.8 |
| 20260506222655 | 20 | 347 | 11.3 | 17.7 | 0.00 | 0.00 | 0.00 | 71 | 1013.5 |
| 20260506222150 | 20 | 349 | 14.5 | 24.1 | 0.00 | 0.00 | 0.00 | 70 | 1013.8 |
| 20260506221649 | 20 | 6 | 6.4 | 17.7 | 0.00 | 0.00 | 0.00 | 70 | 1013.8 |
| 20260506221147 | 20 | 343 | 9.7 | 17.7 | 0.00 | 0.00 | 0.00 | 69 | 1013.8 |
| 20260506220643 | 20 | 338 | 12.9 | 20.9 | 0.00 | 0.00 | 0.00 | 69 | 1013.5 |
| 20260506220138 | 21 | 352 | 9.7 | 14.5 | 0.00 | 0.00 | 0.00 | 67 | 1013.5 |
| 20260506215635 | 20 | 331 | 9.7 | 16.1 | 0.00 | 0.00 | 0.00 | 68 | 1013.5 |
| 20260506215130 | 21 | 6 | 11.3 | 20.9 | 0.00 | 0.00 | 0.00 | 66 | 1013.5 |
| 20260506214628 | 21 | 3 | 9.7 | 20.9 | 0.00 | 0.00 | 0.00 | 65 | 1013.5 |
| 20260506214125 | 21 | 352 | 11.3 | 17.7 | 0.00 | 0.00 | 0.00 | 67 | 1013.5 |
| 20260506213623 | 21 | 352 | 9.7 | 14.5 | 0.00 | 0.00 | 0.00 | 68 | 1013.5 |
| 20260506213120 | 21 | 343 | 16.1 | 27.4 | 0.00 | 0.00 | 0.00 | 66 | 1013.1 |
| 20260506212618 | 22 | 6 | 8.0 | 19.3 | 0.00 | 0.00 | 0.00 | 64 | 1013.1 |
| 20260506212112 | 22 | 351 | 14.5 | 19.3 | 0.00 | 0.00 | 0.00 | 64 | 1013.1 |
| 20260506211608 | 22 | 352 | 12.9 | 24.1 | 0.00 | 0.00 | 0.00 | 64 | 1012.8 |
| 20260506211105 | 23 | 356 | 16.1 | 22.5 | 0.00 | 0.00 | 0.00 | 63 | 1012.8 |
| 20260506210602 | 23 | 351 | 16.1 | 24.1 | 0.00 | 0.00 | 0.00 | 62 | 1013.1 |
| 20260506210058 | 23 | 358 | 9.7 | 17.7 | 0.00 | 0.00 | 0.00 | 62 | 1013.1 |
| 20260506205555 | 23 | 0 | 11.3 | 16.1 | 0.00 | 0.00 | 0.00 | 63 | 1013.1 |
| 20260506205050 | 24 | 7 | 14.5 | 19.3 | 0.00 | 0.00 | 0.00 | 63 | 1013.1 |
| 20260506204549 | 24 | 356 | 9.7 | 17.7 | 0.00 | 0.00 | 0.00 | 62 | 1013.5 |
| 20260506204045 | 23 | 347 | 9.7 | 12.9 | 0.00 | 0.00 | 0.00 | 64 | 1013.5 |
| 20260506203544 | 23 | 352 | 12.9 | 16.1 | 0.00 | 0.00 | 0.00 | 67 | 1013.5 |
| 20260506203040 | 23 | 351 | 12.9 | 20.9 | 0.00 | 0.00 | 0.00 | 67 | 1013.5 |
| 20260506202537 | 23 | 356 | 14.5 | 19.3 | 0.00 | 0.00 | 0.00 | 69 | 1013.5 |
| 20260506202033 | 23 | 358 | 6.4 | 12.9 | 0.00 | 0.00 | 0.00 | 69 | 1013.5 |
| 20260506201531 | 22 | 1 | 11.3 | 14.5 | 0.00 | 0.00 | 0.00 | 70 | 1013.5 |
| 20260506201027 | 22 | 343 | 12.9 | 20.9 | 0.00 | 0.00 | 0.00 | 70 | 1013.1 |
| 20260506200524 | 23 | 355 | 14.5 | 19.3 | 0.00 | 0.00 | 0.00 | 69 | 1013.1 |
| 20260506200021 | 25 | 333 | 16.1 | 25.7 | 0.00 | 0.00 | 0.00 | 67 | 1012.8 |
| 20260506195518 | 25 | 356 | 6.4 | 9.7 | 0.00 | 0.00 | 0.00 | 67 | 1012.5 |
| 20260506195014 | 25 | 358 | 4.8 | 11.3 | 0.00 | 0.00 | 0.00 | 67 | 1012.8 |
| 20260506194512 | 25 | 24 | 4.8 | 9.7 | 0.00 | 0.00 | 0.00 | 67 | 1012.8 |
| 20260506194008 | 25 | 2 | 6.4 | 11.3 | 0.00 | 0.00 | 0.00 | 67 | 1012.8 |
| 20260506193505 | 25 | 356 | 6.4 | 11.3 | 0.00 | 0.00 | 0.00 | 67 | 1012.5 |
| 20260506193002 | 26 | 349 | 9.7 | 20.9 | 0.00 | 0.00 | 0.00 | 65 | 1012.5 |
| 20260506192459 | 27 | 352 | 6.4 | 9.7 | 0.00 | 0.00 | 0.00 | 63 | 1012.5 |
| 20260506191955 | 27 | 2 | 6.4 | 8.0 | 0.00 | 0.00 | 0.00 | 63 | 1012.5 |
| 20260506191452 | 27 | 3 | 6.4 | 8.0 | 0.00 | 0.00 | 0.00 | 64 | 1012.8 |
| 20260506190948 | 27 | 349 | 11.3 | 16.1 | 0.00 | 0.00 | 0.00 | 61 | 1012.8 |
| 20260506190446 | 28 | 352 | 9.7 | 17.7 | 0.00 | 0.00 | 0.00 | 59 | 1012.8 |
| 20260506185942 | 29 | 334 | 6.4 | 11.3 | 0.00 | 0.00 | 0.00 | 56 | 1012.8 |
| 20260506185439 | 29 | 56 | 0.0 | 1.6 | 0.00 | 0.00 | 0.00 | 56 | 1012.8 |
| 20260506184936 | 28 | 349 | 3.2 | 6.4 | 0.00 | 0.00 | 0.00 | 59 | 1012.8 |
| 20260506184433 | 28 | 347 | 6.4 | 12.9 | 0.00 | 0.00 | 0.00 | 58 | 1012.8 |
| 20260506183930 | 27 | 76 | 1.6 | 8.0 | 0.00 | 0.00 | 0.00 | 60 | 1012.8 |
| 20260506183425 | 27 | 30 | 4.8 | 6.4 | 0.00 | 0.00 | 0.00 | 60 | 1012.8 |
| 20260506182923 | 26 | 46 | 4.8 | 6.4 | 0.00 | 0.00 | 0.00 | 62 | 1012.8 |
| 20260506182420 | 26 | 45 | 3.2 | 6.4 | 0.00 | 0.00 | 0.00 | 62 | 1013.1 |
| 20260506181917 | 26 | 17 | 3.2 | 8.0 | 0.00 | 0.00 | 0.00 | 63 | 1012.8 |
| 20260506181415 | 25 | 349 | 3.2 | 4.8 | 0.00 | 0.00 | 0.00 | 64 | 1013.1 |
| 20260506180912 | 26 | 343 | 4.8 | 9.7 | 0.00 | 0.00 | 0.00 | 62 | 1012.8 |
| 20260506180408 | 25 | 43 | 3.2 | 9.7 | 0.00 | 0.00 | 0.00 | 65 | 1012.8 |
| 20260506175905 | 25 | 0 | 0.0 | 3.2 | 0.00 | 0.00 | 0.00 | 67 | 1012.8 |
| 20260506175401 | 25 | 1 | 1.6 | 3.2 | 0.00 | 0.00 | 0.00 | 68 | 1013.1 |
| 20260506174858 | 23 | 1 | 1.6 | 6.4 | 0.00 | 0.00 | 0.00 | 71 | 1013.1 |
| 20260506174356 | 23 | 13 | 4.8 | 9.7 | 0.00 | 0.00 | 0.00 | 72 | 1013.1 |
| 20260506173853 | 23 | 355 | 4.8 | 9.7 | 0.00 | 0.00 | 0.00 | 71 | 1013.1 |
| 20260506173350 | 23 | 23 | 4.8 | 9.7 | 0.00 | 0.00 | 0.00 | 71 | 1013.1 |
| 20260506172847 | 22 | 9 | 8.0 | 11.3 | 0.00 | 0.00 | 0.00 | 74 | 1013.5 |
| 20260506172344 | 22 | 23 | 4.8 | 11.3 | 0.00 | 0.00 | 0.00 | 75 | 1013.5 |
| 20260506171841 | 21 | 356 | 8.0 | 16.1 | 0.00 | 0.00 | 0.00 | 76 | 1013.5 |
| 20260506171338 | 22 | 358 | 11.3 | 16.1 | 0.00 | 0.00 | 0.00 | 76 | 1013.5 |
| 20260506170836 | 21 | 349 | 4.8 | 8.0 | 0.00 | 0.00 | 0.00 | 78 | 1013.5 |
| 20260506170332 | 21 | 13 | 6.4 | 11.3 | 0.00 | 0.00 | 0.00 | 80 | 1013.5 |
| 20260506165831 | 20 | 30 | 6.4 | 11.3 | 0.00 | 0.00 | 0.00 | 82 | 1013.5 |
| 20260506165329 | 20 | 12 | 8.0 | 16.1 | 0.00 | 0.00 | 0.00 | 84 | 1013.8 |
| 20260506164825 | 19 | 358 | 9.7 | 14.5 | 0.00 | 0.00 | 0.00 | 86 | 1013.8 |
| 20260506164322 | 18 | 356 | 4.8 | 6.4 | 0.00 | 0.00 | 0.00 | 87 | 1014.1 |
| 20260506163819 | 18 | 349 | 6.4 | 9.7 | 0.00 | 0.00 | 0.00 | 88 | 1014.5 |
| 20260506163313 | 18 | 356 | 14.5 | 19.3 | 0.00 | 0.00 | 0.00 | 88 | 1014.9 |
| 20260506162809 | 19 | 351 | 9.7 | 16.1 | 0.00 | 0.00 | 0.00 | 88 | 1014.9 |
| 20260506162308 | 20 | 342 | 9.7 | 20.9 | 0.00 | 0.00 | 0.00 | 86 | 1014.5 |
| 20260506161804 | 25 | 349 | 6.4 | 11.3 | 0.00 | 0.00 | 0.00 | 85 | 1013.5 |
| 20260506161301 | 25 | 59 | 0.0 | 0.0 | 0.00 | 0.00 | 0.00 | 85 | 1012.8 |
| 20260506153051 | 25 | 59 | 0.0 | 0.0 | 0.00 | 0.00 | 0.00 | 85 | 1012.8 |
| 20260506152548 | 25 | 59 | 0.0 | 0.0 | 0.00 | 0.00 | 0.00 | 85 | 1012.8 |
| 20260506152046 | 25 | 59 | 1.6 | 4.8 | 0.00 | 0.00 | 0.00 | 85 | 1012.8 |
| 20260506151544 | 25 | 59 | 0.0 | 0.0 | 0.00 | 0.00 | 0.00 | 85 | 1012.8 |
| 20260506151041 | 25 | 61 | 0.0 | 0.0 | 0.00 | 0.00 | 0.00 | 86 | 1012.8 |
| 20260506150537 | 25 | 61 | 0.0 | 0.0 | 0.00 | 0.00 | 0.00 | 87 | 1012.5 |
| 20260506150034 | 25 | 112 | 3.2 | 4.8 | 0.00 | 0.00 | 0.00 | 88 | 1012.5 |
| 20260506145531 | 25 | 115 | 6.4 | 8.0 | 0.00 | 0.00 | 0.00 | 88 | 1012.5 |
| 20260506145028 | 25 | 113 | 11.3 | 14.5 | 0.00 | 0.00 | 0.00 | 88 | 1012.1 |
| 20260506144525 | 25 | 111 | 9.7 | 9.7 | 0.00 | 0.00 | 0.00 | 88 | 1011.8 |
| 20260506144022 | 25 | 114 | 8.0 | 11.3 | 0.00 | 0.00 | 0.00 | 88 | 1012.1 |
| 20260506143520 | 25 | 118 | 8.0 | 9.7 | 0.00 | 0.00 | 0.00 | 88 | 1011.8 |
| 20260506143018 | 25 | 109 | 11.3 | 14.5 | 0.00 | 0.00 | 0.00 | 89 | 1011.8 |
| 20260506142515 | 25 | 111 | 14.5 | 16.1 | 0.00 | 0.00 | 0.00 | 89 | 1011.4 |
| 20260506142014 | 25 | 111 | 9.7 | 12.9 | 0.00 | 0.00 | 0.00 | 88 | 1011.8 |
| 20260506141511 | 25 | 113 | 11.3 | 14.5 | 0.00 | 0.00 | 0.00 | 88 | 1011.8 |
| 20260506141009 | 25 | 112 | 4.8 | 6.4 | 0.00 | 0.00 | 0.00 | 88 | 1012.1 |
| 20260506140506 | 25 | 74 | 0.0 | 0.0 | 0.00 | 0.00 | 0.00 | 88 | 1012.1 |
| 20260506140004 | 25 | 74 | 0.0 | 0.0 | 0.00 | 0.00 | 0.00 | 88 | 1011.8 |
| 20260506135500 | 25 | 108 | 8.0 | 9.7 | 0.00 | 0.00 | 0.00 | 89 | 1011.8 |
| 20260506134956 | 25 | 95 | 6.4 | 11.3 | 0.00 | 0.00 | 0.00 | 89 | 1011.4 |
| 20260506134452 | 25 | 127 | 6.4 | 8.0 | 0.00 | 0.00 | 0.00 | 89 | 1011.4 |
| 20260506133949 | 25 | 111 | 6.4 | 8.0 | 0.00 | 0.00 | 0.00 | 89 | 1011.4 |
| 20260506133446 | 25 | 128 | 3.2 | 4.8 | 0.00 | 0.00 | 0.00 | 89 | 1011.4 |
| 20260506132943 | 25 | 128 | 6.4 | 8.0 | 0.00 | 0.00 | 0.00 | 89 | 1011.1 |
| 20260506132440 | 24 | 104 | 3.2 | 6.4 | 0.00 | 0.00 | 0.00 | 90 | 1011.1 |
| 20260506131937 | 24 | 63 | 1.6 | 3.2 | 0.00 | 0.00 | 0.00 | 90 | 1011.4 |
| 20260506131434 | 24 | 74 | 3.2 | 9.7 | 0.00 | 0.00 | 0.00 | 90 | 1011.1 |
| 20260506130931 | 24 | 111 | 9.7 | 12.9 | 0.00 | 0.00 | 0.00 | 90 | 1011.1 |
| 20260506130427 | 24 | 110 | 12.9 | 16.1 | 0.00 | 0.00 | 0.00 | 90 | 1011.1 |
| 20260506125925 | 24 | 102 | 9.7 | 16.1 | 0.00 | 0.00 | 0.00 | 90 | 1011.1 |
| 20260506125423 | 24 | 96 | 11.3 | 12.9 | 0.00 | 0.00 | 0.00 | 90 | 1011.1 |
| 20260506124921 | 24 | 106 | 11.3 | 12.9 | 0.00 | 0.00 | 0.00 | 90 | 1011.1 |
| 20260506124418 | 24 | 114 | 11.3 | 14.5 | 0.00 | 0.00 | 0.00 | 90 | 1011.1 |
| 20260506123916 | 24 | 106 | 11.3 | 14.5 | 0.00 | 0.00 | 0.00 | 90 | 1011.1 |
| 20260506123414 | 24 | 110 | 14.5 | 16.1 | 0.00 | 0.00 | 0.00 | 90 | 1011.1 |
| 20260506122911 | 24 | 107 | 12.9 | 17.7 | 0.00 | 0.00 | 0.00 | 90 | 1011.1 |
| 20260506122408 | 24 | 108 | 12.9 | 14.5 | 0.00 | 0.00 | 0.00 | 90 | 1011.1 |
| 20260506121907 | 24 | 96 | 9.7 | 14.5 | 0.00 | 0.00 | 0.00 | 90 | 1011.1 |
| 20260506121403 | 24 | 105 | 9.7 | 14.5 | 0.00 | 0.00 | 0.00 | 90 | 1011.1 |
| 20260506120900 | 24 | 111 | 12.9 | 14.5 | 0.00 | 0.00 | 0.00 | 90 | 1011.1 |
| 20260506120357 | 24 | 99 | 14.5 | 17.7 | 0.00 | 0.00 | 0.00 | 90 | 1010.8 |
| 20260506115855 | 24 | 111 | 9.7 | 12.9 | 0.00 | 0.00 | 0.00 | 90 | 1010.8 |
| 20260506115353 | 24 | 110 | 11.3 | 12.9 | 0.00 | 0.00 | 0.00 | 90 | 1010.8 |
| 20260506114850 | 24 | 117 | 9.7 | 11.3 | 0.00 | 0.00 | 0.00 | 90 | 1010.8 |
| 20260506114348 | 24 | 106 | 9.7 | 12.9 | 0.00 | 0.00 | 0.00 | 89 | 1011.1 |
| 20260506113847 | 24 | 117 | 9.7 | 11.3 | 0.00 | 0.00 | 0.00 | 89 | 1010.8 |
| 20260506113344 | 24 | 104 | 9.7 | 12.9 | 0.00 | 0.00 | 0.00 | 89 | 1010.8 |
| 20260506112840 | 24 | 108 | 9.7 | 12.9 | 0.00 | 0.00 | 0.00 | 89 | 1010.8 |
| 20260506112337 | 24 | 110 | 12.9 | 14.5 | 0.00 | 0.00 | 0.00 | 89 | 1010.8 |
| 20260506111835 | 24 | 109 | 14.5 | 17.7 | 0.00 | 0.00 | 0.00 | 90 | 1011.1 |
| 20260506111333 | 24 | 115 | 9.7 | 11.3 | 0.00 | 0.00 | 0.00 | 90 | 1010.8 |
| 20260506110830 | 24 | 112 | 9.7 | 12.9 | 0.00 | 0.00 | 0.00 | 90 | 1010.8 |
| 20260506110327 | 24 | 112 | 9.7 | 11.3 | 0.00 | 0.00 | 0.00 | 90 | 1010.8 |
| 20260506105824 | 24 | 101 | 8.0 | 9.7 | 0.00 | 0.00 | 0.00 | 90 | 1010.8 |
| 20260506105320 | 24 | 110 | 12.9 | 16.1 | 0.00 | 0.00 | 0.00 | 90 | 1010.8 |
| 20260506104818 | 24 | 104 | 16.1 | 19.3 | 0.00 | 0.00 | 0.00 | 90 | 1010.8 |
| 20260506104316 | 24 | 83 | 6.4 | 11.3 | 0.00 | 0.00 | 0.00 | 90 | 1010.8 |
| 20260506103813 | 24 | 117 | 9.7 | 12.9 | 0.00 | 0.00 | 0.00 | 90 | 1010.8 |
| 20260506103310 | 24 | 120 | 8.0 | 9.7 | 0.00 | 0.00 | 0.00 | 90 | 1010.8 |
| 20260506102808 | 24 | 104 | 9.7 | 14.5 | 0.00 | 0.00 | 0.00 | 90 | 1010.4 |
| 20260506102306 | 24 | 107 | 11.3 | 14.5 | 0.00 | 0.00 | 0.00 | 90 | 1010.4 |
| 20260506101803 | 24 | 111 | 9.7 | 11.3 | 0.00 | 0.00 | 0.00 | 90 | 1010.4 |
| 20260506101258 | 24 | 116 | 11.3 | 14.5 | 0.00 | 0.00 | 0.00 | 90 | 1010.4 |
| 20260506100757 | 24 | 104 | 8.0 | 11.3 | 0.00 | 0.00 | 0.00 | 90 | 1010.4 |
| 20260506100254 | 24 | 136 | 9.7 | 19.3 | 0.00 | 0.00 | 0.00 | 90 | 1010.1 |
| 20260506095753 | 24 | 114 | 14.5 | 24.1 | 0.00 | 0.00 | 0.00 | 90 | 1010.1 |
| 20260506095249 | 24 | 129 | 8.0 | 16.1 | 0.00 | 0.00 | 0.00 | 90 | 1010.1 |
| 20260506094746 | 24 | 111 | 9.7 | 16.1 | 0.00 | 0.00 | 0.00 | 90 | 1010.1 |
| 20260506094244 | 24 | 141 | 17.7 | 27.4 | 0.00 | 0.00 | 0.00 | 90 | 1010.1 |
| 20260506093743 | 24 | 127 | 12.9 | 19.3 | 0.00 | 0.00 | 0.00 | 90 | 1010.1 |
| 20260506093239 | 24 | 110 | 12.9 | 20.9 | 0.00 | 0.00 | 0.00 | 90 | 1009.7 |
| 20260506092737 | 24 | 137 | 12.9 | 17.7 | 0.00 | 0.00 | 0.00 | 90 | 1009.7 |
| 20260506092235 | 24 | 95 | 4.8 | 11.3 | 0.00 | 0.00 | 0.00 | 90 | 1009.7 |
| 20260506091732 | 24 | 144 | 12.9 | 19.3 | 0.00 | 0.00 | 0.00 | 90 | 1009.7 |
| 20260506091229 | 24 | 135 | 12.9 | 20.9 | 0.00 | 0.00 | 0.00 | 91 | 1009.7 |
| 20260506090727 | 24 | 121 | 12.9 | 19.3 | 0.00 | 0.00 | 0.00 | 91 | 1009.7 |
| 20260506090224 | 24 | 111 | 14.5 | 17.7 | 0.00 | 0.00 | 0.00 | 90 | 1009.7 |
| 20260506085721 | 24 | 105 | 12.9 | 17.7 | 0.00 | 0.00 | 0.00 | 90 | 1009.7 |
| 20260506085217 | 24 | 114 | 12.9 | 24.1 | 0.00 | 0.00 | 0.00 | 90 | 1009.7 |
| 20260506084714 | 24 | 115 | 14.5 | 17.7 | 0.00 | 0.00 | 0.00 | 90 | 1009.7 |
| 20260506084210 | 24 | 127 | 12.9 | 19.3 | 0.00 | 0.00 | 0.00 | 90 | 1009.7 |
| 20260506083707 | 24 | 135 | 11.3 | 14.5 | 0.00 | 0.00 | 0.00 | 90 | 1009.7 |
| 20260506083205 | 24 | 107 | 14.5 | 20.9 | 0.00 | 0.00 | 0.00 | 90 | 1009.7 |
| 20260506082702 | 24 | 108 | 14.5 | 17.7 | 0.00 | 0.00 | 0.00 | 90 | 1009.7 |
| 20260506082202 | 24 | 133 | 8.0 | 14.5 | 0.00 | 0.00 | 0.00 | 90 | 1009.7 |
| 20260506081700 | 24 | 113 | 14.5 | 17.7 | 0.00 | 0.00 | 0.00 | 90 | 1009.7 |
| 20260506081158 | 24 | 114 | 14.5 | 19.3 | 0.00 | 0.00 | 0.00 | 90 | 1009.7 |
| 20260506080655 | 24 | 110 | 16.1 | 20.9 | 0.00 | 0.00 | 0.00 | 90 | 1009.7 |
| 20260506080152 | 24 | 112 | 12.9 | 17.7 | 0.00 | 0.00 | 0.00 | 89 | 1009.7 |
| 20260506073136 | 24 | 128 | 11.3 | 20.9 | 0.00 | 0.00 | 0.00 | 89 | 1010.1 |
| 20260506072632 | 24 | 120 | 12.9 | 20.9 | 0.00 | 0.00 | 0.00 | 89 | 1010.1 |
| 20260506072130 | 24 | 152 | 9.7 | 17.7 | 0.00 | 0.00 | 0.00 | 89 | 1010.1 |
| 20260506071628 | 24 | 119 | 12.9 | 17.7 | 0.00 | 0.00 | 0.00 | 89 | 1010.4 |
| 20260506071125 | 24 | 128 | 12.9 | 24.1 | 0.00 | 0.00 | 0.00 | 89 | 1010.4 |
| 20260506070622 | 24 | 134 | 16.1 | 24.1 | 0.00 | 0.00 | 0.00 | 89 | 1010.1 |
| 20260506070119 | 24 | 125 | 14.5 | 24.1 | 0.00 | 0.00 | 0.00 | 88 | 1010.4 |
| 20260506062056 | 24 | 96 | 16.1 | 27.4 | 0.00 | 0.00 | 0.00 | 89 | 1010.4 |
| 20260506061552 | 24 | 111 | 12.9 | 17.7 | 0.00 | 0.00 | 0.00 | 89 | 1010.4 |
| 20260506061050 | 24 | 118 | 16.1 | 19.3 | 0.00 | 0.00 | 0.00 | 89 | 1010.1 |
| 20260506060548 | 24 | 102 | 14.5 | 16.1 | 0.00 | 0.00 | 0.00 | 89 | 1010.4 |
| 20260506051017 | 25 | 111 | 12.9 | 19.3 | 0.00 | 0.00 | 0.00 | 88 | 1010.4 |
| 20260506050515 | 25 | 108 | 12.9 | 19.3 | 0.00 | 0.00 | 0.00 | 88 | 1010.4 |
| 20260506045005 | 25 | 120 | 16.1 | 24.1 | 0.00 | 0.00 | 0.00 | 87 | 1010.1 |
| 20260506044504 | 25 | 114 | 17.7 | 27.4 | 0.00 | 0.00 | 0.00 | 87 | 1010.4 |
| 20260506044000 | 25 | 107 | 19.3 | 25.7 | 0.00 | 0.00 | 0.00 | 87 | 1010.4 |
| 20260506043457 | 25 | 107 | 17.7 | 22.5 | 0.00 | 0.00 | 0.00 | 87 | 1010.1 |
| 20260506042955 | 25 | 113 | 17.7 | 25.7 | 0.00 | 0.00 | 0.00 | 87 | 1010.1 |
| 20260506042454 | 25 | 112 | 19.3 | 22.5 | 0.00 | 0.00 | 0.00 | 87 | 1010.1 |
| 20260506041951 | 25 | 127 | 14.5 | 24.1 | 0.00 | 0.00 | 0.00 | 86 | 1010.1 |
| 20260506041450 | 25 | 112 | 17.7 | 20.9 | 0.00 | 0.00 | 0.00 | 86 | 1010.1 |
| 20260506040947 | 25 | 113 | 16.1 | 19.3 | 0.00 | 0.00 | 0.00 | 86 | 1010.1 |
| 20260506040444 | 25 | 109 | 22.5 | 25.7 | 0.00 | 0.00 | 0.00 | 86 | 1009.7 |
| 20260506035940 | 25 | 124 | 19.3 | 24.1 | 0.00 | 0.00 | 0.00 | 85 | 1009.7 |
| 20260506035437 | 25 | 106 | 20.9 | 25.7 | 0.00 | 0.00 | 0.00 | 85 | 1009.7 |
| 20260506034934 | 25 | 118 | 20.9 | 27.4 | 0.00 | 0.00 | 0.00 | 85 | 1009.7 |
| 20260506034431 | 25 | 109 | 20.9 | 24.1 | 0.00 | 0.00 | 0.00 | 85 | 1009.7 |
| 20260506033928 | 25 | 112 | 19.3 | 22.5 | 0.00 | 0.00 | 0.00 | 85 | 1009.7 |
| 20260506033426 | 25 | 104 | 22.5 | 29.0 | 0.00 | 0.00 | 0.00 | 85 | 1009.7 |
| 20260506032922 | 25 | 123 | 19.3 | 29.0 | 0.00 | 0.00 | 0.00 | 84 | 1009.7 |
| 20260506032419 | 25 | 107 | 19.3 | 22.5 | 0.00 | 0.00 | 0.00 | 84 | 1009.7 |
| 20260506031916 | 26 | 106 | 24.1 | 29.0 | 0.00 | 0.00 | 0.00 | 84 | 1009.4 |
| 20260506031413 | 26 | 108 | 20.9 | 29.0 | 0.00 | 0.00 | 0.00 | 84 | 1009.4 |
| 20260506030911 | 26 | 111 | 22.5 | 25.7 | 0.00 | 0.00 | 0.00 | 83 | 1009.4 |
| 20260506030409 | 26 | 109 | 20.9 | 27.4 | 0.00 | 0.00 | 0.00 | 83 | 1009.4 |
| 20260506025905 | 26 | 111 | 19.3 | 22.5 | 0.00 | 0.00 | 0.00 | 83 | 1009.1 |
| 20260506025402 | 26 | 112 | 20.9 | 24.1 | 0.00 | 0.00 | 0.00 | 83 | 1009.1 |
| 20260506024859 | 26 | 106 | 19.3 | 24.1 | 0.00 | 0.00 | 0.00 | 82 | 1009.1 |
| 20260506024356 | 26 | 113 | 24.1 | 27.4 | 0.00 | 0.00 | 0.00 | 82 | 1008.7 |
| 20260506023852 | 26 | 110 | 20.9 | 29.0 | 0.00 | 0.00 | 0.00 | 81 | 1008.7 |
| 20260506023349 | 26 | 112 | 19.3 | 27.4 | 0.00 | 0.00 | 0.00 | 81 | 1008.7 |
| 20260506022845 | 26 | 107 | 19.3 | 27.4 | 0.00 | 0.00 | 0.00 | 80 | 1008.3 |
| 20260506022343 | 26 | 108 | 20.9 | 24.1 | 0.00 | 0.00 | 0.00 | 79 | 1008.3 |
| 20260506021841 | 27 | 108 | 29.0 | 33.8 | 0.00 | 0.00 | 0.00 | 78 | 1008.0 |
| 20260506021338 | 27 | 108 | 27.4 | 33.8 | 0.00 | 0.00 | 0.00 | 77 | 1008.0 |
| 20260506020834 | 27 | 106 | 16.1 | 22.5 | 0.00 | 0.00 | 0.00 | 76 | 1008.0 |
| 20260506020332 | 27 | 108 | 17.7 | 22.5 | 0.00 | 0.00 | 0.00 | 76 | 1008.0 |
| 20260506015830 | 27 | 103 | 20.9 | 24.1 | 0.00 | 0.00 | 0.00 | 75 | 1008.0 |
| 20260506015327 | 27 | 106 | 20.9 | 24.1 | 0.00 | 0.00 | 0.00 | 75 | 1008.0 |
| 20260506014824 | 27 | 116 | 19.3 | 20.9 | 0.00 | 0.00 | 0.00 | 75 | 1007.6 |
| 20260506014320 | 27 | 108 | 20.9 | 27.4 | 0.00 | 0.00 | 0.00 | 75 | 1008.0 |
| 20260506013817 | 27 | 102 | 17.7 | 20.9 | 0.00 | 0.00 | 0.00 | 75 | 1008.0 |
| 20260506013314 | 27 | 107 | 17.7 | 22.5 | 0.00 | 0.00 | 0.00 | 74 | 1008.0 |
| 20260506012811 | 27 | 109 | 20.9 | 25.7 | 0.00 | 0.00 | 0.00 | 74 | 1008.0 |
| 20260506012308 | 27 | 111 | 22.5 | 25.7 | 0.00 | 0.00 | 0.00 | 74 | 1007.6 |
| 20260506011805 | 28 | 104 | 20.9 | 25.7 | 0.00 | 0.00 | 0.00 | 73 | 1008.0 |
| 20260506011301 | 28 | 106 | 16.1 | 19.3 | 0.00 | 0.00 | 0.00 | 73 | 1008.0 |
| 20260506010800 | 28 | 107 | 14.5 | 17.7 | 0.00 | 0.00 | 0.00 | 73 | 1008.0 |
| 20260506010257 | 28 | 108 | 16.1 | 20.9 | 0.00 | 0.00 | 0.00 | 72 | 1008.0 |
| 20260506005754 | 28 | 113 | 12.9 | 16.1 | 0.00 | 0.00 | 0.00 | 72 | 1008.0 |
| 20260506005251 | 28 | 108 | 14.5 | 17.7 | 0.00 | 0.00 | 0.00 | 72 | 1008.0 |
| 20260506004746 | 28 | 104 | 11.3 | 16.1 | 0.00 | 0.00 | 0.00 | 72 | 1008.0 |
| 20260506004245 | 28 | 114 | 9.7 | 14.5 | 0.00 | 0.00 | 0.00 | 72 | 1007.6 |
| 20260506003740 | 28 | 112 | 9.7 | 12.9 | 0.00 | 0.00 | 0.00 | 72 | 1007.6 |
| 20260506003237 | 28 | 120 | 11.3 | 16.1 | 0.00 | 0.00 | 0.00 | 72 | 1007.6 |
| 20260506002733 | 28 | 108 | 14.5 | 17.7 | 0.00 | 0.00 | 0.00 | 72 | 1007.6 |
| 20260506002229 | 28 | 115 | 12.9 | 14.5 | 0.00 | 0.00 | 0.00 | 72 | 1007.6 |
| 20260506001725 | 28 | 102 | 14.5 | 17.7 | 0.00 | 0.00 | 0.00 | 71 | 1007.6 |
| 20260506001223 | 28 | 126 | 11.3 | 16.1 | 0.00 | 0.00 | 0.00 | 71 | 1007.3 |
| 20260506000719 | 28 | 102 | 16.1 | 19.3 | 0.00 | 0.00 | 0.00 | 71 | 1007.6 |
| 20260506000219 | 28 | 119 | 11.3 | 14.5 | 0.00 | 0.00 | 0.00 | 71 | 1007.3 |
| 20260505235714 | 28 | 152 | 11.3 | 19.3 | 0.00 | 0.00 | 0.00 | 71 | 1007.3 |
| 20260505235212 | 28 | 110 | 16.1 | 20.9 | 0.00 | 0.00 | 0.00 | 71 | 1007.3 |
| 20260505234708 | 28 | 107 | 22.5 | 29.0 | 0.00 | 0.00 | 0.00 | 70 | 1007.3 |
| 20260505234206 | 28 | 104 | 19.3 | 24.1 | 0.00 | 0.00 | 0.00 | 70 | 1007.3 |
| 20260505233702 | 28 | 107 | 16.1 | 22.5 | 0.00 | 0.00 | 0.00 | 70 | 1007.3 |
| 20260505233200 | 28 | 108 | 17.7 | 20.9 | 0.00 | 0.00 | 0.00 | 70 | 1007.3 |
| 20260505232657 | 28 | 161 | 14.5 | 20.9 | 0.00 | 0.00 | 0.00 | 69 | 1007.3 |
| 20260505232155 | 28 | 103 | 14.5 | 19.3 | 0.00 | 0.00 | 0.00 | 69 | 1007.3 |
| 20260505231651 | 28 | 115 | 11.3 | 16.1 | 0.00 | 0.00 | 0.00 | 69 | 1007.3 |
| 20260505231150 | 28 | 147 | 16.1 | 25.7 | 0.00 | 0.00 | 0.00 | 69 | 1007.3 |
| 20260505230648 | 28 | 133 | 19.3 | 29.0 | 0.00 | 0.00 | 0.00 | 69 | 1007.3 |
| 20260505230144 | 28 | 115 | 20.9 | 27.4 | 0.00 | 0.00 | 0.00 | 69 | 1006.9 |
| 20260505225640 | 28 | 133 | 19.3 | 24.1 | 0.00 | 0.00 | 0.00 | 69 | 1006.9 |
| 20260505225137 | 28 | 142 | 11.3 | 20.9 | 0.00 | 0.00 | 0.00 | 68 | 1007.3 |